DW4714 Weather Reports


time (UTC)temp
F
wind
direction
speed
knots
gust
knots
rain 1hr
in
rain 24hr
in
rain mn
in
humidity
%
barometer
mb
20260901023617 68 267 0.0 0.0 0.00 0.00 0.00 72 1014.6
20260901022617 68 267 0.0 0.0 0.00 0.00 0.00 72 1014.7
20260901021617 68 267 0.0 0.0 0.00 0.00 0.00 72 1014.9
20260901020617 68 267 0.0 0.0 0.00 0.00 0.00 72 1014.9
20260901015637 68 267 0.0 0.0 0.00 0.00 0.00 72 1014.9
20260901014617 68 267 0.0 0.0 0.00 0.00 0.00 72 1014.9
20260901013637 69 267 0.0 0.0 0.00 0.00 0.00 72
20260901012637 69 267 0.0 0.0 0.00 0.00 0.00 71
20260901011617 69 267 0.0 0.0 0.00 0.00 0.00 71 1014.7
20260901010617 69 267 0.0 0.0 0.00 0.00 0.00 71 1014.7
20260901005637 69 267 0.0 0.0 0.00 0.00 0.00 71 1014.6
20260901004617 69 267 0.0 0.0 0.00 0.00 0.00 71 1014.7
20260901003637 70 267 0.0 0.0 0.00 0.00 0.00 71 1014.6
20260901002617 70 267 0.0 0.0 0.00 0.00 0.00 70 1014.5
20260901001617 70 267 0.0 0.0 0.00 0.00 0.00 71 1014.5
20260901000617 71 267 0.0 0.0 0.00 0.00 0.00 70 1014.5
20260831235617 71 267 0.0 0.0 0.00 0.00 0.00 70
20260831234617 72 267 0.0 0.0 0.00 0.00 0.00 70 1014.5
20260831233617 72 267 0.0 0.0 0.00 0.00 0.00 70 1014.6
20260831232617 72 267 0.0 0.0 0.00 0.00 0.00 69 1014.6
20260831231617 72 267 0.0 0.0 0.00 0.00 0.00 69 1014.6
20260831230617 73 267 0.0 0.0 0.00 0.00 0.00 69 1014.8
20260831225617 73 267 0.0 0.0 0.00 0.00 0.00 69 1014.9
20260831224618 73 267 0.0 0.0 0.00 0.00 0.00 69 1014.8
20260831223617 73 267 0.0 0.0 0.00 0.00 0.00 68 1014.9
20260831222637 73 267 0.0 0.0 0.00 0.00 0.00 68 1014.9
20260831221617 73 267 0.0 0.0 0.00 0.00 0.00 68 1015.1
20260831220617 74 267 0.0 0.0 0.00 0.00 0.00 68 1015.1
20260831215617 74 267 0.0 0.0 0.00 0.00 0.00 67 1015.0
20260831214617 74 242 0.0 0.0 0.00 0.00 0.00 68 1015.1
20260831213617 74 180 0.0 0.0 0.00 0.00 0.00 68 1015.1
20260831212616 74 180 0.0 0.0 0.00 0.00 0.00 67 1015.1
20260831211617 74 180 0.0 3.5 0.00 0.00 0.00 67 1015.2
20260831210617 74 175 0.0 0.0 0.00 0.00 0.00 67 1015.1
20260831205636 74 175 0.0 0.0 0.00 0.00 0.00 67
20260831204617 74 175 0.0 0.0 0.00 0.00 0.00 67 1015.3
20260831203637 74 175 0.0 0.0 0.00 0.00 0.00 68 1015.5
20260831202657 74 175 0.0 0.0 0.00 0.00 0.00 68 1015.6
20260831201621 74 175 0.0 0.0 0.00 0.00 0.00 69 1015.7
20260831200617 74 175 0.0 0.0 0.00 0.00 0.00 68 1015.8
20260831195617 74 175 0.0 0.0 0.00 0.00 0.00 68 1015.8
20260831194617 74 175 0.0 0.0 0.00 0.00 0.00 66 1015.8
20260831193617 74 175 0.0 0.0 0.00 0.00 0.00 64 1016.0
20260831192637 74 175 0.0 0.0 0.00 0.00 0.00 63 1016.1
20260831191616 74 175 0.0 0.0 0.00 0.00 0.00 63 1016.3
20260831190617 74 175 0.0 0.0 0.00 0.00 0.00 64 1016.4
20260831185616 74 175 0.0 0.0 0.00 0.00 0.00 65 1016.6
20260831184616 74 175 0.0 0.0 0.00 0.00 0.00 64 1016.7
20260831183637 74 175 0.0 0.0 0.00 0.00 0.00 64 1016.7
20260831182616 74 175 0.0 0.0 0.00 0.00 0.00 64 1016.7
20260831181636 74 175 0.0 0.0 0.00 0.00 0.00 63 1016.8
20260831180616 74 175 0.0 0.0 0.00 0.00 0.00 63 1016.8
20260831175616 74 175 0.0 0.0 0.00 0.00 0.00 63 1016.9
20260831174636 74 175 0.0 0.0 0.00 0.00 0.00 63 1017.0
20260831173636 74 175 0.0 0.0 0.00 0.00 0.00 61 1016.9
20260831172616 74 175 0.0 0.0 0.00 0.00 0.00 62 1017.0
20260831171616 74 175 0.0 0.0 0.00 0.00 0.00 62 1016.9
20260831170616 74 175 0.0 0.0 0.00 0.00 0.00 61 1016.8
20260831165616 75 175 0.0 0.0 0.00 0.00 0.00 58 1016.8
20260831164616 75 175 0.0 0.0 0.00 0.00 0.00 57 1016.9
20260831163616 76 175 0.0 0.0 0.00 0.00 0.00 57 1017.0
20260831162637 76 270 1.7 3.5 0.00 0.00 0.00 57 1017.0
20260831161616 75 263 0.0 0.0 0.00 0.00 0.00 60 1017.0
20260831160616 75 270 2.6 5.2 0.00 0.00 0.00 62 1016.9
20260831155616 73 267 0.0 0.0 0.00 0.00 0.00 62 1017.0
20260831154616 73 267 0.0 0.0 0.00 0.00 0.00 64 1017.1
20260831153616 73 267 0.0 0.0 0.00 0.00 0.00 65 1017.3
20260831152616 73 267 0.0 0.0 0.00 0.00 0.00 65 1017.4
20260831151616 73 267 0.0 0.0 0.00 0.00 0.00 63
20260831150616 73 267 0.0 0.0 0.00 0.00 0.00 65 1017.4
20260831145616 73 267 0.0 0.0 0.00 0.00 0.00 65 1017.2
20260831144617 73 267 0.0 0.0 0.00 0.00 0.00 64 1017.2
20260831143616 73 267 0.0 0.0 0.00 0.00 0.00 65 1017.5
20260831142616 73 267 0.0 0.0 0.00 0.00 0.00 65 1017.6
20260831141616 72 57 0.0 0.0 0.00 0.00 0.00 67 1017.5
20260831140616 71 65 0.0 0.0 0.00 0.00 0.00 68 1017.3
20260831135656 70 68 0.0 0.9 0.00 0.00 0.00 72 1017.3
20260831134616 70 0.0 0.0 0.00 0.00 0.00 76 1017.4
20260831133616 69 0.0 0.0 0.00 0.00 0.00 77 1017.4
20260831132616 68 0.0 0.0 0.00 0.00 0.00 77 1017.1
20260831131617 68 0.0 0.0 0.00 0.00 0.00 77 1017.1
20260831130616 68 0.0 0.0 0.00 0.00 0.00 77 1017.2
20260831125616 67 0.0 0.0 0.00 0.00 0.00 77 1017.2
20260831124638 67 0.0 0.0 0.00 0.00 0.00 77 1017.2
20260831123616 67 0.0 0.0 0.00 0.00 0.00 77 1017.3
20260831122616 66 0.0 0.0 0.00 0.00 0.00 77 1017.4
20260831121615 66 0.0 0.0 0.00 0.00 0.00 77 1017.0
20260831120616 66 0.0 0.0 0.00 0.00 0.00 77 1017.3
20260831115616 66 0.0 0.0 0.00 0.00 0.00 77 1017.2
20260831114616 65 0.0 0.0 0.00 0.00 0.00 77 1017.1
20260831113615 65 0.0 0.0 0.00 0.00 0.00 77
20260831112636 65 0.0 0.0 0.00 0.00 0.00 77 1017.1
20260831111615 65 0.0 0.0 0.00 0.00 0.00 76 1017.1
20260831110615 65 0.0 0.0 0.00 0.00 0.00 76 1017.0
20260831105617 65 0.0 0.0 0.00 0.00 0.00 76
20260831104617 64 0.0 0.0 0.00 0.00 0.00 76
20260831103617 64 0.0 0.0 0.00 0.00 0.00 75 1016.5
20260831102638 65 0.0 0.0 0.00 0.00 0.00 76
20260831101618 65 0.0 0.0 0.00 0.00 0.00 75 1016.3
20260831100658 65 0.0 0.0 0.00 0.00 0.00 75 1016.4
20260831095616 65 0.0 0.0 0.00 0.00 0.00 75 1016.4
20260831094637 65 0.0 0.0 0.00 0.00 0.00 75 1016.5
20260831093617 65 0.0 0.0 0.00 0.00 0.00 75 1016.4
20260831092618 65 0.0 0.0 0.00 0.00 0.00 75 1016.3
20260831091618 65 0.0 0.0 0.00 0.00 0.00 75 1016.2
20260831090616 65 0.0 0.0 0.00 0.00 0.00 75 1016.2
20260831085617 66 0.0 0.0 0.00 0.00 0.00 75 1016.1
20260831084618 66 0.0 0.0 0.00 0.00 0.00 75 1016.1
20260831083637 66 0.0 0.0 0.00 0.00 0.00 75 1016.2
20260831082658 66 0.0 0.0 0.00 0.00 0.00 75 1016.1
20260831081617 66 0.0 0.0 0.00 0.00 0.00 75 1016.0
20260831080617 66 0.0 0.0 0.00 0.00 0.00 75 1015.9
20260831075617 66 0.0 0.0 0.00 0.00 0.00 75 1016.1
20260831074617 66 0.0 0.0 0.00 0.00 0.00 74 1016.1
20260831073637 66 0.0 0.0 0.00 0.00 0.00 74 1016.2
20260831072637 66 0.0 0.0 0.00 0.00 0.00 74 1016.0
20260831071617 66 0.0 0.0 0.00 0.00 0.00 74 1016.1
20260831070616 66 0.0 0.0 0.00 0.00 0.00 74 1016.1
20260831065637 66 0.0 0.0 0.00 0.00 0.00 74 1016.1
20260831064617 66 0.0 0.0 0.00 0.00 0.00 74 1016.2
20260831063617 66 0.0 0.0 0.00 0.00 0.00 73 1016.3
20260831062637 66 0.0 0.0 0.00 0.00 0.00 73
20260831061618 67 0.0 0.0 0.00 0.00 0.00 73 1016.4
20260831060617 67 0.0 0.0 0.00 0.00 0.00 73 1016.3
20260831055616 67 338 0.0 0.0 0.00 0.00 0.00 73 1016.2
20260831054618 67 338 0.0 0.0 0.00 0.00 0.00 73 1016.2
20260831053617 67 338 0.0 0.0 0.00 0.00 0.00 73 1016.3
20260831052617 67 338 0.0 0.0 0.00 0.00 0.00 73 1016.4
20260831051617 67 338 0.0 0.0 0.00 0.00 0.00 73 1016.4
20260831050637 67 338 0.0 0.0 0.00 0.00 0.00 73 1016.4
20260831045617 67 338 0.0 0.0 0.00 0.00 0.00 72 1016.5
20260831044642 68 338 0.0 0.0 0.00 0.00 0.00 72 1016.3
20260831043617 68 338 0.0 0.0 0.00 0.00 0.00 72 1016.4
20260831042637 68 338 0.0 0.0 0.00 0.00 0.00 72 1016.5
20260831040617 68 338 0.0 0.0 0.00 0.00 0.00 72 1016.5
20260831035617 68 338 0.0 0.0 0.00 0.00 0.00 72 1016.5
20260831034638 68 338 0.0 0.0 0.00 0.00 0.00 72 1016.4
20260831033617 69 338 0.0 0.0 0.00 0.00 0.00 72 1016.4
20260831032618 69 338 0.0 0.0 0.00 0.00 0.00 72 1016.2
20260831031637 69 338 0.0 0.0 0.00 0.00 0.00 72 1016.3
20260831030617 69 338 0.0 0.0 0.00 0.00 0.00 72 1016.4
20260831025617 69 338 0.0 0.0 0.00 0.00 0.00 72 1016.4
20260831024637 69 338 0.0 0.0 0.00 0.00 0.00 72 1016.4